Location: Feigenhofen
(48.4939°N, 10.7793°E)
Time: 22:44:36
(UTC+00:00)

NPP - Pass Details

Date: 26 May 2022
Orbit: 826 x 828 km, 98.7° (Epoch: 24 June)

Event Time Altitude Azimuth Distance (km) Brightness Sun altitude
Rises 01:48:24 0° 10° (N) 3,379 8.1 -12.3°
Reaches altitude 10° 01:50:49 10° 5° (N) 2,441 7.1 -12.1°
Maximum altitude 01:56:00 50° 292° (WNW) 1,053 4.1 -11.6°
Enters shadow 02:00:19 15° 222° (SW) 2,108 5.1 -11.1°
